Vertical_Velocity
-3 -2 5 -3 -3 1 -1 -2 -1 -0 -1 -4 -2 -3 0 -1 -2 -3 -1 1 -0 -1 -2 -0 3 -2 -1 -1 -4 1 1 3 -2 2 3 -2 4 -3 -2 4 3 -1 2 -0
-5 5 -8 1 1 -1 -2 -1 3 1 -1 -0 -2 4 -4 1 -1 -2 -3 -0 -1 -3 -0 -0 -2 -3 -0 -1 -2 -4 -2 -0 -3 3 -5 -3 3 5 1 0 2 1 -1 2
-3 -1 2 -5 -1 3 -1 -3 -1 -1 -3 0 -3 6 -1 -1 -2 -2 -2 -1 -1 -3 1 -0 -2 -3 -2 -3 -3 -3 1 -2 -1 5 3 5 2 -2 -1 -2 1 -3 -4 2
-10 4 -3 1 -2 -2 -1 -5 1 -1 -3 -0 -5 -4 0 -1 -4 -0 0 -0 0 -0 1 -1 -2 -2 -3 -1 -1 -4 -1 1 -2 4 2 2 -2 2 -1 -1 1 -0 -2 -3
17 -2 0 -4 4 -6 5 -2 -0 -2 -1 -4 9 -16 7 3 1 2 -2 -4 -1 -1 0 -1 -3 -3 -4 -1 1 -3 -4 0 3 1 1 4 -1 6 9 6 7 -2 1 -4
8 -7 2 4 -2 2 -5 5 1 -2 -3 -5 -3 -6 3 2 -4 1 -1 1 -5 -2 0 -1 -2 -1 -4 -2 0 0 -1 -1 -1 0 1 2 7 1 3 -2 2 -1 1 6
14 5 -6 4 -3 2 0 3 -3 -2 -2 -3 1 -7 6 -1 -4 -1 -3 -2 -4 -2 -0 -2 -1 -0 -2 -2 -1 -1 -3 -2 0 1 1 -3 -0 -3 -3 -7 -3 -4 14 6
0 -7 7 15 7 3 0 -4 -4 1 -5 -1 3 -2 -1 0 -1 -1 0 0 -3 -2 0 -1 -1 -2 0 -1 -1 0 -6 2 -5 -4 -0 -2 -5 -5 -13 -2 -7 10 6 -7
5 -9 5 4 9 1 12 -8 7 -8 2 -5 1 1 -2 3 1 0 -1 -0 -2 -3 -0 -2 -1 -1 0 -2 -1 3 -0 3 3 -1 1 4 -8 -8 -2 3 18 -5 13 4
0 -3 -2 -5 2 3 -4 -2 -1 -1 -5 1 1 -2 -6 -2 1 1 -1 -1 -0 -3 -1 -2 1 -2 -1 -1 -4 5 -3 2 2 -1 -4 -2 -6 -0 3 7 12 0 11 9
15 2 9 -4 -4 17 -2 -4 4 4 -2 -1 2 -9 1 -2 2 1 -1 -0 -0 -2 -1 -2 0 -0 -1 -0 -2 -5 6 -5 -1 -0 1 2 1 2 1 -0 -0 2 2 16
16 25 -16 5 10 3 2 1 -5 -6 -4 4 -1 4 -8 1 -1 1 -1 -1 -0 -0 -2 -2 -2 1 -1 -1 -1 -1 -5 4 -0 -3 -1 2 2 -2 -5 2 -3 -1 1 -0
16 -33 -9 -4 -19 -7 -7 6 3 6 -2 -10 0 -1 -3 -1 -1 0 -1 -0 -0 -0 -2 -2 -3 -1 1 -1 -1 -0 -1 -2 3 8 -2 -3 -0 1 -1 -5 -3 -3 -4 -1
9 -12 -27 -11 11 17 4 1 10 -3 -13 14 3 -1 -2 0 -0 -2 0 -1 -0 1 -1 -3 -2 -2 -1 0 -2 -1 -1 -0 -1 -3 -0 1 2 2 1 -2 1 0 -2 -4
-3 -29 -3 11 10 -9 -2 -3 -1 -22 14 -14 25 0 -7 1 -1 -2 -1 -1 -1 1 1 -3 -1 -1 -3 0 -1 -2 -1 -1 -1 -3 -5 -4 -0 -4 0 -1 -1 1 -1 -0
25 -26 5 5 6 8 -14 -7 -13 -3 2 -3 3 0 -5 2 1 -2 -3 1 -2 1 1 -1 -1 -2 -3 -2 -0 -2 -2 -1 -0 1 2 -0 -2 -4 -4 0 -3 -1 -1 -0
-12 2 7 -33 12 18 -24 -3 12 4 -2 14 -14 29 -6 7 -1 -2 -2 -0 -1 0 1 -0 -0 -0 -3 -2 -2 -1 -3 -2 -2 -1 1 1 1 0 -0 -1 1 0 -0 -1
7 12 -1 -16 22 4 -29 -14 16 -3 1 -2 2 -1 1 3 2 -0 -2 -1 -1 0 0 1 -0 -1 -1 -1 -2 -2 -0 -1 -1 0 -1 -1 0 2 2 2 1 0 -1 -0
-4 10 19 -3 6 -25 21 -13 -6 -14 13 6 7 4 -2 2 1 1 -0 -2 -1 0 1 1 0 -1 0 -1 -1 -1 -1 -1 -1 -1 0 -2 -1 -1 -0 -1 -1 -0 2 3
-3 23 11 27 2 -40 18 19 6 14 -35 -11 5 3 0 1 5 -1 -1 -3 -1 -1 0 0 -1 -1 -0 -1 -0 -0 -2 -1 -1 1 0 1 1 1 -0 -1 -3 -4 -5 -4
-15 18 -12 2 7 -10 23 13 18 -38 30 12 8 9 -9 0 13 -9 1 1 -1 -0 2 0 -2 -1 -1 -2 1 -1 1 0 -1 -1 -2 -3 -5 -4 -4 -2 1 1 -0 -1
-0 7 -7 13 -11 -16 12 2 -48 51 28 15 6 3 1 10 -4 5 -5 -3 -1 1 -0 -1 -0 -2 -1 -2 0 -0 -0 -0 -1 -1 1 2 2 1 1 1 -1 -0 1 2
-12 -14 -14 -15 -49 17 17 10 20 18 11 6 2 3 2 -1 -5 11 -3 -2 -1 1 1 1 1 -2 -1 -2 -1 -1 -1 -1 -2 -1 -1 -1 -1 -0 -1 -3 -3 -2 -2 -3
-9 5 1 -6 8 -1 3 11 9 -10 12 6 4 5 3 7 3 1 0 -1 -0 2 1 -2 0 -1 0 0 -0 -2 -3 -2 -2 -1 -1 -1 -0 -3 -4 -2 1 0 -1 -2
1 20 6 -40 28 6 9 6 6 10 3 4 7 2 6 6 3 -1 2 0 -3 -1 0 -2 -1 -2 -1 1 1 -1 -2 -2 1 0 -1 -1 -1 -2 -2 0 0 -1 -1 -1
5 -0 -24 -28 27 9 11 14 18 18 -1 16 12 4 5 7 5 3 3 -0 -1 0 1 1 -1 -3 -0 -0 -1 -3 -1 -0 1 -0 -1 -1 -2 -3 -3 -3 -3 -2 -2 -1
Height
5790 5791 5792 5790 5791 5791 5791 5790 5789 5788 5786 5786 5786 5787 5785 5783 5782 5780 5777 5772 5766 5760 5752 5742 5733 5726 5717 5705 5693 5684 5684 5692 5703 5713 5723 5730 5737 5742 5748 5754 5760 5767 5772 5775
5784 5787 5785 5786 5786 5786 5786 5785 5785 5783 5780 5781 5780 5782 5779 5778 5777 5775 5771 5767 5762 5755 5746 5736 5728 5721 5711 5700 5692 5685 5685 5692 5701 5711 5718 5726 5732 5736 5742 5748 5755 5760 5766 5770
5776 5780 5780 5780 5780 5780 5780 5780 5779 5778 5775 5776 5774 5777 5775 5774 5772 5769 5766 5762 5757 5750 5741 5732 5725 5717 5707 5699 5694 5690 5689 5695 5702 5707 5713 5721 5727 5732 5737 5742 5749 5755 5761 5765
5767 5773 5773 5773 5775 5775 5776 5774 5774 5772 5770 5771 5770 5770 5769 5770 5767 5765 5761 5758 5754 5747 5738 5729 5722 5714 5706 5701 5696 5693 5694 5697 5701 5705 5712 5719 5725 5728 5733 5738 5744 5749 5755 5760
5765 5763 5765 5767 5769 5768 5772 5769 5768 5767 5766 5765 5768 5761 5766 5765 5763 5762 5757 5754 5751 5744 5735 5728 5720 5713 5707 5703 5700 5699 5699 5701 5704 5709 5712 5717 5721 5724 5728 5732 5736 5741 5748 5755
5755 5753 5758 5762 5761 5763 5764 5765 5763 5761 5761 5761 5761 5758 5759 5759 5756 5756 5754 5751 5747 5741 5733 5726 5719 5714 5709 5706 5704 5703 5703 5704 5706 5710 5714 5717 5719 5721 5723 5726 5731 5736 5741 5748
5747 5746 5749 5752 5754 5757 5758 5757 5757 5757 5756 5756 5757 5755 5756 5753 5752 5751 5749 5747 5745 5739 5732 5725 5719 5715 5711 5708 5707 5706 5706 5707 5709 5711 5715 5718 5719 5718 5719 5718 5723 5730 5735 5741
5733 5735 5740 5745 5748 5749 5749 5749 5753 5752 5749 5751 5754 5752 5751 5750 5749 5748 5747 5746 5743 5738 5731 5725 5720 5716 5713 5710 5708 5707 5707 5706 5709 5710 5714 5717 5716 5713 5715 5715 5717 5722 5731 5741
5723 5725 5730 5732 5739 5738 5743 5743 5746 5745 5746 5744 5750 5749 5747 5747 5746 5745 5744 5743 5741 5737 5731 5726 5721 5717 5714 5711 5709 5708 5707 5707 5708 5710 5712 5714 5713 5713 5710 5707 5712 5717 5726 5736
5712 5712 5715 5717 5727 5728 5730 5737 5739 5739 5742 5740 5744 5744 5743 5742 5743 5742 5742 5741 5739 5736 5731 5726 5722 5718 5714 5712 5711 5709 5711 5709 5709 5711 5712 5712 5711 5711 5709 5710 5713 5719 5725 5732
5699 5699 5702 5700 5713 5723 5724 5727 5732 5733 5735 5736 5738 5737 5740 5738 5739 5739 5740 5739 5737 5735 5732 5727 5723 5720 5717 5713 5711 5711 5710 5713 5712 5713 5713 5713 5713 5713 5712 5715 5717 5719 5725 5732
5682 5686 5687 5691 5705 5709 5712 5717 5719 5721 5732 5732 5731 5735 5734 5736 5734 5736 5737 5736 5735 5733 5731 5728 5724 5721 5719 5716 5713 5711 5711 5710 5712 5713 5713 5713 5715 5717 5717 5717 5721 5723 5727 5731
5664 5663 5673 5678 5685 5691 5694 5705 5712 5718 5721 5724 5726 5731 5731 5732 5730 5732 5733 5733 5733 5732 5731 5728 5726 5723 5720 5718 5716 5714 5714 5713 5712 5712 5714 5715 5715 5716 5718 5720 5722 5725 5728 5731
5642 5649 5658 5667 5676 5687 5692 5700 5705 5711 5711 5721 5721 5725 5727 5727 5727 5728 5729 5730 5730 5729 5729 5728 5726 5724 5722 5719 5718 5716 5715 5715 5715 5715 5714 5714 5714 5716 5718 5721 5723 5726 5729 5733
5625 5635 5648 5657 5665 5669 5677 5683 5690 5695 5703 5709 5720 5718 5720 5722 5723 5725 5725 5726 5727 5726 5727 5726 5726 5724 5723 5720 5720 5719 5717 5716 5717 5717 5717 5717 5717 5718 5719 5722 5724 5726 5729 5730
5613 5621 5635 5640 5652 5658 5661 5669 5679 5685 5694 5699 5707 5713 5716 5718 5719 5721 5721 5722 5723 5723 5723 5724 5724 5724 5722 5722 5721 5720 5719 5718 5718 5717 5718 5718 5719 5720 5721 5723 5725 5726 5727 5729
5602 5607 5616 5623 5641 5648 5645 5658 5670 5676 5686 5692 5699 5712 5709 5713 5714 5716 5718 5719 5720 5720 5720 5721 5722 5722 5721 5721 5721 5720 5721 5721 5721 5721 5721 5721 5721 5722 5723 5725 5726 5727 5728 5730
5588 5594 5603 5611 5624 5621 5639 5647 5661 5666 5677 5685 5695 5699 5704 5708 5710 5712 5714 5715 5717 5717 5717 5718 5720 5720 5720 5720 5720 5720 5720 5721 5722 5722 5723 5723 5723 5723 5723 5725 5726 5727 5729 5730
5575 5582 5588 5595 5604 5619 5619 5639 5651 5658 5670 5677 5684 5691 5698 5704 5706 5709 5710 5711 5713 5714 5715 5716 5717 5718 5718 5718 5718 5719 5719 5719 5720 5721 5721 5722 5723 5724 5724 5725 5725 5726 5726 5726
5559 5566 5573 5580 5589 5595 5619 5634 5643 5649 5654 5667 5677 5684 5690 5696 5703 5705 5706 5707 5709 5711 5712 5713 5714 5715 5716 5716 5716 5717 5717 5718 5718 5719 5720 5720 5720 5720 5721 5722 5723 5724 5724 5725
5542 5546 5555 5566 5577 5591 5604 5621 5631 5636 5654 5661 5669 5678 5683 5693 5699 5698 5703 5705 5706 5707 5709 5710 5712 5713 5714 5714 5714 5715 5715 5716 5716 5717 5717 5717 5719 5719 5720 5720 5721 5721 5722 5722
5532 5539 5541 5555 5565 5572 5598 5609 5619 5634 5647 5653 5662 5670 5675 5687 5688 5696 5698 5700 5702 5703 5705 5707 5709 5711 5712 5713 5713 5713 5714 5714 5714 5715 5715 5716 5716 5717 5717 5717 5718 5718 5717 5717
5519 5528 5536 5546 5566 5580 5592 5601 5615 5626 5636 5645 5653 5660 5668 5675 5682 5690 5693 5696 5698 5700 5702 5704 5706 5707 5709 5710 5711 5712 5712 5711 5712 5712 5712 5713 5713 5714 5714 5713 5713 5713 5712 5711
5514 5521 5527 5538 5551 5560 5578 5592 5601 5610 5625 5633 5644 5652 5660 5668 5676 5682 5688 5692 5695 5697 5699 5700 5703 5705 5706 5707 5708 5709 5710 5709 5709 5709 5710 5710 5710 5710 5710 5710 5709 5708 5707 5706
5503 5509 5520 5532 5545 5555 5569 5581 5592 5605 5615 5625 5635 5642 5650 5660 5668 5675 5682 5687 5691 5693 5695 5697 5700 5702 5702 5704 5705 5706 5707 5707 5706 5706 5707 5708 5708 5708 5708 5706 5705 5704 5703 5701
5497 5505 5509 5523 5540 5550 5565 5578 5587 5592 5605 5613 5624 5635 5643 5652 5660 5668 5675 5681 5686 5689 5692 5695 5697 5698 5699 5700 5702 5703 5704 5704 5703 5704 5705 5705 5705 5705 5704 5703 5701 5700 5698 5696